Location: Grasslands National Park East Block
(49.0708°N, 106.5295°W)
Time: 15:05:28
(UTC-06:00)

Max Valier Satellite - Pass Details

Date: 26 September 2019
Orbit: 490 x 508 km, 97.3° (Epoch: 15 October)

Event Time Altitude Azimuth Distance (km) Brightness Sun altitude
Exits shadow 22:33:51 15° 321° (NW) 1,428 ? -33.4°
Drops below altitude 10° 22:34:43 10° 328° (NNW) 1,734 ? -33.5°
Sets 22:36:59 0° 339° (NNW) 2,624 ? -33.8°
